Location: Unspecified
(0.0000°N, 0.0000°E)
Time: 08:38:43
(UTC+00:00)

Altair - Visible Passes

Search period start: 03 August 2015 00:00
Search period end: 13 August 2015 00:00
Orbit: 1502 x 1682 km, 47.2° (Epoch: 01 August)

Date Brightness Start Highest point End Pass type
(mag) Time Alt. Az. Time Alt. Az. Time Alt. Az.
03 Aug 10.0 05:18:33 10° NNE 05:23:13 15° NE 05:28:43 10° E visible
03 Aug 8.2 20:09:56 10° WSW 20:19:03 49° NW 20:27:49 10° NNE visible
04 Aug 10.1 04:54:27 10° NNE 04:57:55 13° NE 05:02:16 10° ENE visible
04 Aug 8.1 19:44:35 10° SW 19:53:54 55° NW 20:02:51 10° NNE visible
05 Aug 10.2 04:31:02 10° NNE 04:32:36 11° NE 04:35:08 10° ENE visible
05 Aug 7.9 19:19:16 10° SW 19:28:46 62° NW 19:37:52 10° NNE visible
06 Aug 7.8 18:54:00 10° SW 19:03:37 70° NW 19:12:51 10° NNE visible
06 Aug 9.9 21:05:57 10° WNW 21:09:01 11° NW 21:11:13 10° NNW visible
07 Aug 8.6 05:38:42 10° NNW 05:47:51 52° NE 05:57:27 10° SE visible
07 Aug 7.8 18:28:46 10° SW 18:38:29 78° NW 18:47:48 10° NE visible
07 Aug 9.8 20:39:11 10° WNW 20:43:43 13° NW 20:47:28 10° NNW visible
08 Aug 8.7 05:13:45 10° NNW 05:22:41 46° NE 05:32:04 10° ESE visible
08 Aug 9.8 20:12:54 10° W 20:18:27 16° NW 20:23:16 10° NNW visible
09 Aug 8.8 04:48:50 10° NNW 04:57:30 41° NE 05:06:38 10° ESE visible
09 Aug 9.8 19:46:52 10° W 19:53:11 18° NW 19:58:51 10° N visible
10 Aug 8.9 04:23:58 10° NNW 04:32:19 37° NE 04:41:09 10° ESE visible
10 Aug 9.7 19:20:59 10° W 19:27:57 21° NW 19:34:17 10° N visible
11 Aug 9.0 03:59:08 10° N 04:07:08 32° NE 04:15:37 10° ESE visible
11 Aug 9.6 18:55:13 10° W 19:02:43 24° NW 19:09:39 10° N visible
12 Aug 9.1 03:34:21 10° N 03:41:56 29° NE 03:50:02 10° ESE visible
12 Aug 7.6 05:37:19 10° NW 05:46:42 61° SW 05:56:25 10° SSE visible
12 Aug 9.6 18:29:32 10° WSW 18:37:30 28° NW 18:44:56 10° N visible
